Probability
3 1 0 0 0 0 0 0 0 0 0 0 0 0 0 0 0 0 0 0 0 0 0 0 0 0 0 0 0 0 0 0 1 0 0 0 0 0 0 0 0 0 0
7 4 1 0 0 0 0 0 0 0 0 0 0 0 0 0 0 0 0 0 0 0 0 0 0 0 0 0 0 0 0 0 1 0 0 0 0 0 0 0 0 0 0
12 7 2 0 0 0 0 0 0 0 0 0 0 0 0 0 0 0 0 0 0 0 0 0 0 0 0 0 0 0 0 0 1 0 0 0 0 0 0 0 0 0 0
16 10 4 1 1 0 0 0 0 0 0 0 0 0 0 1 1 1 0 0 0 0 0 0 0 0 0 0 0 0 0 1 1 1 0 0 0 0 0 0 0 0 0
18 14 9 6 3 2 2 2 1 1 0 0 0 0 0 2 2 1 0 0 0 0 0 0 0 0 0 0 0 0 0 1 2 1 0 0 0 0 0 0 0 0 0
22 18 14 11 8 6 6 5 4 3 2 1 1 0 0 2 3 2 0 0 0 0 1 2 1 0 0 0 0 0 0 1 2 1 0 0 0 0 0 0 0 0 0
25 20 16 16 14 11 11 10 8 6 4 3 1 1 0 1 4 4 1 0 0 1 3 4 3 1 0 0 0 0 0 0 1 1 0 0 0 0 0 0 0 0 0
26 22 21 23 20 16 15 14 11 8 6 4 3 3 1 1 3 4 3 1 1 2 3 5 4 3 2 1 0 0 0 0 0 0 0 0 0 0 0 0 0 0 0
26 25 25 26 23 19 17 15 13 10 7 6 6 6 3 1 2 3 4 3 3 3 2 3 4 5 4 3 1 0 0 0 0 0 0 0 0 0 0 0 0 0 0
24 25 24 25 25 22 17 14 13 13 10 7 8 9 6 3 3 3 3 3 4 4 2 2 3 4 5 4 3 1 0 0 0 0 0 0 0 0 0 0 0 0 0
20 21 22 24 25 23 17 14 15 16 13 9 8 9 9 7 5 2 1 2 3 3 3 3 3 4 4 5 4 1 0 0 0 0 0 0 0 0 0 0 0 0 0
17 18 20 23 24 21 16 14 16 16 14 10 7 7 9 8 6 4 2 2 3 3 4 6 7 6 4 4 3 2 1 0 0 0 0 0 0 0 0 1 1 1 0
14 16 19 22 21 17 16 16 16 15 13 9 6 6 6 6 5 4 4 4 3 4 6 8 8 7 4 3 3 3 1 0 0 0 0 0 0 0 0 1 2 1 1
12 17 23 23 19 16 18 20 18 15 14 12 9 8 6 4 3 3 5 4 3 3 4 6 7 7 6 5 3 2 1 0 0 0 0 0 0 0 0 0 1 1 0
14 21 27 26 21 18 19 21 20 17 17 17 15 12 8 4 3 3 4 5 4 2 1 3 6 9 8 5 2 1 1 0 0 0 0 0 0 0 0 0 0 0 0
16 23 27 24 21 19 18 18 17 16 18 19 17 14 10 7 6 5 5 7 7 3 0 2 7 12 11 7 4 2 1 0 0 0 0 0 0 0 0 0 0 0 0
17 21 23 20 17 15 14 12 11 12 13 14 14 12 9 9 9 9 9 10 9 5 2 4 10 14 14 11 7 4 2 0 0 0 0 0 0 0 0 0 0 0 0
15 17 18 17 13 11 9 8 7 7 8 10 11 9 7 7 8 9 10 9 8 5 3 5 9 11 10 8 6 3 1 0 0 0 0 0 0 0 0 0 0 0 0
12 13 15 14 11 8 7 6 5 5 6 7 8 6 5 4 4 5 6 5 3 2 3 4 5 5 3 2 2 1 0 0 0 0 0 0 0 0 0 0 0 0 0
10 11 12 12 10 8 7 7 6 6 6 5 5 4 3 3 3 3 2 1 0 0 1 2 3 2 0 0 0 0 0 0 0 0 0 0 0 0 0 0 0 0 0
10 9 9 10 10 8 7 8 7 6 5 4 4 3 3 3 3 2 1 0 0 0 0 1 1 0 0 0 0 0 0 0 0 0 0 0 0 0 0 0 0 0 0
10 8 7 8 8 6 5 5 5 5 4 3 3 3 3 3 1 1 0 0 0 0 0 0 0 1 1 1 0 0 0 0 0 0 0 0 0 0 0 0 0 0 0
9 8 8 8 6 3 2 2 2 4 4 3 3 3 3 2 1 0 0 0 0 0 0 0 0 1 2 1 0 0 0 0 0 0 0 0 0 0 0 0 0 0 0
10 10 10 9 6 2 0 0 1 2 3 3 3 3 3 3 1 0 0 0 0 0 0 0 0 1 1 1 0 0 0 0 0 0 0 0 0 0 0 0 0 0 0
14 13 12 9 5 1 0 0 0 1 1 2 2 2 2 2 1 0 0 0 0 0 0 0 0 0 0 0 0 0 0 0 0 0 0 0 0 0 0 0 0 0 0
17 15 12 7 4 1 0 0 0 1 2 2 1 1 1 1 1 0 0 0 0 0 0 0 0 0 0 0 0 0 0 0 0 0 0 0 0 0 0 0 0 0 0
Wind_Speed
4 4 3 2 3 3 3 3 2 3 2 1 1 2 2 3 5 7 6 11 11 9 9 9 8 8 7 7 8 8 8 8 7 7 7 6 6 6 6 6 5 5 5
4 4 3 2 2 2 2 2 3 3 2 1 1 2 2 2 4 7 7 8 10 9 8 8 8 8 8 8 8 7 7 7 7 7 6 6 6 6 5 5 5 5 5
5 3 3 3 2 3 3 2 2 2 2 2 2 2 2 2 3 5 7 6 6 8 9 8 8 8 8 8 8 8 8 7 7 7 6 6 6 6 5 5 5 5 5
5 3 3 3 3 3 3 2 2 2 2 1 2 2 2 2 3 4 5 7 6 6 8 10 9 9 9 9 9 9 8 8 8 8 7 7 7 7 7 6 6 6 5
5 3 2 3 3 2 3 3 2 1 1 1 2 2 3 3 3 4 4 6 6 6 6 9 11 10 10 10 10 9 9 9 9 9 9 9 8 8 8 7 7 7 6
5 3 3 4 3 2 2 2 3 1 1 1 2 2 3 3 3 3 4 5 5 7 8 8 7 8 12 11 10 10 10 10 10 10 10 10 10 9 9 8 8 8 7
5 3 2 4 2 2 3 3 3 3 2 2 1 1 2 3 4 3 3 3 5 6 6 8 7 5 6 11 10 10 11 11 11 11 11 11 11 10 9 9 9 8 8
5 5 3 3 3 2 2 2 2 1 2 2 1 1 1 1 2 4 3 3 4 4 5 8 7 6 5 5 8 12 11 11 11 12 12 11 10 10 10 10 9 9 9
5 3 4 3 3 3 3 3 3 3 2 2 2 1 1 1 1 1 3 3 3 3 3 4 7 7 7 5 6 10 12 11 11 12 11 10 10 10 10 10 10 10 10
5 5 5 4 3 2 3 4 4 2 2 2 1 1 1 1 1 0 2 2 5 4 4 4 5 5 5 4 5 9 13 12 11 11 10 10 10 10 10 10 10 10 10
5 5 5 4 4 3 4 3 2 2 2 2 1 1 1 1 2 2 2 1 2 2 3 3 3 4 4 4 4 8 11 11 9 9 8 9 9 9 9 9 10 9 8
4 6 6 5 5 4 3 3 2 3 2 1 1 1 1 1 1 1 1 2 2 2 3 2 2 3 3 3 4 8 11 9 8 7 6 6 6 6 7 7 7 7 6
5 6 6 5 4 4 4 4 3 2 3 2 2 2 1 1 1 1 1 1 1 1 2 2 1 2 3 3 3 8 8 8 6 6 5 4 3 3 3 4 4 4 4
5 6 5 5 5 5 5 4 3 4 4 3 4 2 1 2 2 2 1 1 1 1 1 1 1 2 3 3 5 7 5 6 5 4 4 3 2 2 1 0 0 0 1
4 6 6 5 5 5 4 4 3 4 4 4 3 3 2 2 2 2 1 0 1 1 1 0 1 2 3 4 5 4 4 6 6 6 5 4 4 3 3 3 2 3 3
3 4 5 5 4 4 4 4 3 3 3 2 2 2 2 1 1 1 1 1 1 0 1 1 2 3 3 4 7 5 5 8 7 6 6 5 5 5 4 4 5 5 5
3 4 4 4 4 4 4 4 3 3 3 2 2 2 2 1 1 2 1 1 1 1 1 1 2 3 4 4 3 3 4 4 4 7 7 7 7 7 7 6 6 6 6
4 4 4 4 4 4 3 4 4 3 3 3 1 1 1 1 1 2 2 3 2 2 2 2 2 3 3 3 2 2 3 4 4 7 8 8 8 8 7 7 6 6 6
4 4 4 4 3 3 3 3 3 3 3 3 3 3 3 3 3 3 3 3 3 3 3 3 3 3 3 3 3 3 4 3 3 6 7 6 6 6 6 6 6 5 5
4 4 4 4 3 3 4 4 5 5 6 6 7 7 7 6 5 5 4 4 4 5 5 5 4 4 4 4 4 3 3 3 3 2 2 3 3 4 5 5 5 4 4
5 4 4 4 3 3 4 5 6 7 8 9 10 10 10 13 14 10 7 6 6 5 5 5 5 4 4 4 4 3 3 3 3 4 3 1 1 1 2 3 3 4 3
5 5 5 5 4 3 6 10 9 9 9 10 10 9 10 11 16 18 18 17 12 8 6 5 5 5 5 5 4 4 3 3 2 3 3 3 2 2 1 1 4 5 4
6 6 5 6 7 8 11 13 14 10 10 9 9 7 7 9 10 9 14 16 16 17 13 8 8 6 5 4 4 4 3 3 2 2 2 2 2 3 3 2 4 5 5
6 6 7 8 9 10 13 16 16 12 11 10 9 8 8 7 8 9 10 11 10 10 9 8 7 6 5 3 3 3 2 3 2 3 3 2 3 3 4 1 5 5 6
7 7 7 8 9 10 12 14 13 10 10 10 9 9 9 8 11 11 9 9 8 7 9 10 9 7 7 7 6 4 5 4 4 3 5 4 3 4 4 2 1 4 7
8 9 9 9 10 9 10 12 11 8 10 9 9 9 12 11 10 9 7 7 7 4 4 4 4 3 3 4 6 5 4 4 4 3 4 4 4 4 4 3 4 3 5
Wind_Direction
146 142 143 160 169 157 163 173 165 142 157 150 114 102 83 82 111 115 133 151 148 150 153 154 155 156 157 159 160 157 159 156 153 149 149 149 149 153 151 149 146 149 147
137 144 152 163 162 150 150 153 143 141 163 132 117 132 120 108 109 124 140 151 154 159 162 164 166 167 167 165 166 167 168 166 163 165 165 163 166 168 168 168 166 166 163
140 150 154 172 165 140 140 151 148 148 171 165 162 154 134 139 138 138 146 152 160 170 174 175 177 178 177 178 180 181 180 178 176 178 181 180 178 178 181 184 185 182 182
150 163 171 165 155 156 164 146 178 168 154 160 163 166 143 142 153 163 160 163 163 171 181 186 185 187 190 192 194 192 189 190 190 190 191 191 190 190 193 198 200 199 200
159 179 171 138 169 170 165 177 156 149 149 158 181 176 169 165 169 193 169 166 167 165 171 186 190 193 199 202 203 202 201 200 199 199 201 202 202 202 203 207 210 211 212
169 181 169 163 188 162 146 118 121 131 164 210 233 179 184 171 185 183 187 176 170 178 176 174 182 200 208 208 206 207 210 209 207 206 208 210 210 209 209 212 217 220 221
170 187 183 157 185 155 155 157 159 174 209 211 219 227 213 193 187 182 200 178 182 188 173 166 180 188 197 211 211 211 215 215 213 211 212 214 216 215 214 218 221 225 229
174 185 180 180 172 152 171 183 165 179 225 205 192 185 259 266 233 202 185 197 187 180 178 181 186 182 184 179 203 210 216 215 217 216 216 216 219 220 219 222 225 228 233
183 186 168 193 164 177 178 186 190 196 233 240 200 174 175 206 239 237 201 191 180 181 196 189 186 184 187 177 183 202 211 214 217 219 219 218 218 219 223 225 229 231 234
186 182 178 186 181 191 164 195 192 200 214 251 235 196 193 163 187 212 259 201 187 189 200 202 191 180 181 176 180 183 200 208 214 220 220 217 217 220 223 227 233 237 238
189 186 181 181 186 200 186 195 159 181 215 239 248 226 228 212 229 191 223 220 201 190 191 197 179 170 177 171 172 183 190 198 205 212 216 216 217 219 223 228 236 241 243
191 195 187 179 188 200 183 173 177 197 216 278 298 282 227 228 246 228 203 198 198 204 182 177 179 168 164 151 176 167 176 184 189 196 204 209 214 220 223 227 235 241 244
195 198 193 180 192 194 180 178 182 211 210 214 240 268 284 276 264 255 214 220 194 189 167 170 172 146 144 124 128 142 156 167 171 179 186 194 207 216 220 228 233 238 241
197 186 183 181 193 189 191 180 192 201 202 208 228 233 279 289 300 299 253 194 201 229 188 169 111 103 105 108 125 137 121 133 140 148 154 160 165 174 181 156 50 341 335
192 172 175 180 188 190 195 184 206 214 182 195 217 212 226 259 273 292 308 316 193 215 242 180 75 71 91 95 118 115 105 120 125 125 125 119 108 96 88 79 68 64 57
185 164 173 179 181 182 187 193 209 196 176 192 202 204 210 263 291 279 302 334 345 142 160 107 86 73 69 104 110 107 107 113 111 112 107 103 98 92 87 82 79 71 62
161 167 169 175 177 180 177 181 208 179 174 188 211 184 181 236 344 341 13 11 3 44 113 101 82 66 66 72 97 121 128 111 103 106 107 104 100 95 89 84 80 75 68
156 158 160 161 170 167 167 173 195 176 158 168 164 113 132 162 98 359 15 24 37 50 89 105 92 80 67 65 67 82 98 108 111 110 109 109 108 106 102 98 92 84 75
147 142 137 141 153 150 153 165 165 135 118 100 87 74 62 61 56 45 38 32 33 44 70 94 84 67 62 45 37 45 60 57 99 119 119 121 123 124 120 110 101 92 85
126 125 125 125 132 137 137 135 124 106 91 79 72 68 62 61 58 54 52 39 49 56 65 80 78 64 51 30 34 26 32 18 25 54 75 113 138 136 134 126 115 104 97
119 116 111 108 110 126 131 126 116 110 99 87 77 73 72 74 69 66 65 49 49 57 68 77 78 68 48 33 21 7 22 9 16 23 15 18 137 152 154 160 151 144 137
108 106 104 104 102 98 99 109 112 104 99 96 92 85 80 76 78 74 71 66 61 63 66 70 70 68 53 33 12 17 18 6 3 4 356 339 4 20 6 127 159 172 188
102 97 98 97 91 82 91 97 98 98 96 94 93 91 86 79 77 82 76 69 62 61 67 79 76 66 55 26 7 14 12 354 316 309 335 334 359 7 356 65 170 198 217
104 100 94 92 90 86 92 96 96 93 89 87 86 89 90 81 76 84 85 77 67 56 61 72 79 73 67 34 8 2 338 330 337 2 11 355 358 351 338 308 215 221 243
104 99 95 93 93 88 87 95 100 99 96 89 83 77 81 82 76 84 90 92 87 78 74 85 93 94 77 52 32 23 13 10 10 20 19 3 349 337 321 320 330 240 265
106 100 91 87 91 91 86 94 103 108 104 98 88 79 72 76 74 78 87 91 88 83 87 89 93 84 77 58 48 41 27 13 2 4 16 0 348 345 325 333 344 303 285